Kodiak, AK

1:02 AM AKST on January 21, 2018 (GMT -0900)
Kodiak

Weather History for PADQ - September, 2012

Change the Weather History Date:

Tuesday, September 18, 2012

  Actual Average Record
Temperature  
Mean Temperature 53 °F 49 °F  
Max Temperature 56 °F 55 °F 71 °F (1954)
Min Temperature 50 °F 43 °F 31 °F (2000)
Degree Days  
Heating Degree Days 12 16  
Month to date heating degree days 278 249  
Since 1 July heating degree days 1012 882  
Cooling Degree Days 0 0  
Month to date cooling degree days 0 0  
Year to date cooling degree days 0 1  
Growing Degree Days 2 (Base 50)    
Moisture  
Dew Point 49 °F    
Average Humidity 0    
Maximum Humidity 0    
Minimum Humidity 0    
Precipitation  
Precipitation 0.34 in 0.27 in 1.54 in (1966)
Month to date precipitation 2.70 4.02  
Year to date precipitation 36.11 50.81  
Snow  
Snow 0.00 in 0.00 in - ()
Month to date snowfall 0.0 0.0  
Since 1 July snowfall 0.0 0.0  
Since 1 September snowfall 0.0 0.0  
Snow Depth 0.00 in    
Sea Level Pressure  
Sea Level Pressure 29.65 in    
Wind  
Wind Speed 12 mph (SE)    
Max Wind Speed 26 mph    
Max Gust Speed 36 mph    
Visibility 9 miles    
Events Rain    
T = Trace of Precipitation, MM = Missing Value Source: NWS Daily Summary

Daily Weather History Graph

Daily Weather History Graph

Search for Another Location

Airport or City:

Trip Planner

Search our weather history database for the weather conditions in past years. The results will help you decide how hot, cold, wet, or windy it might be!

Date:

Astronomy

Sep. 18, 2012 Rise Set
Actual Time 7:47 AM AKDT 8:18 PM AKDT
Civil Twilight 7:08 AM AKDT 8:57 PM AKDT
Nautical Twilight 6:21 AM AKDT 9:44 PM AKDT
Astronomical Twilight 5:29 AM AKDT 10:35 PM AKDT
Moon 11:55 AM AKDT (9/18) 8:49 PM AKDT (9/18)
Length of Visible Light 13h 48m
Length of Day
12h 30m
Waxing Crescent, 10% of the Moon is Illuminated
Sep 18
Waxing Crescent
Sep 22
First Quarter
Sep 29
Full
Oct 7
Last Quarter
Oct 15
New

Hourly Weather History & Observations

Time (AKDT) Temp. Dew Point Humidity Pressure Visibility Wind Dir Wind Speed Gust Speed Precip Events Conditions
12:53 AM 51.1 °F 46.9 °F 86% 29.71 in 8.0 mi SE 18.4 mph 23.0 mph 0.10 in Rain Light Rain
1:53 AM 51.1 °F 48.0 °F 89% 29.67 in 7.0 mi SSE 18.4 mph 27.6 mph 0.05 in Rain Light Rain
2:53 AM 52.0 °F 48.0 °F 86% 29.65 in 6.0 mi SSE 21.9 mph 34.5 mph 0.07 in Rain Rain
3:53 AM 51.1 °F 48.0 °F 89% 29.63 in 8.0 mi SSE 18.4 mph 28.8 mph 0.07 in Rain Light Rain
4:53 AM 52.0 °F 48.0 °F 86% 29.61 in 10.0 mi SSE 24.2 mph 31.1 mph 0.03 in Rain Light Rain
5:53 AM 52.0 °F 48.0 °F 86% 29.59 in 10.0 mi SSE 17.3 mph 27.6 mph 0.01 in Rain Light Rain
6:53 AM 53.1 °F 48.0 °F 83% 29.57 in 10.0 mi SSE 16.1 mph 24.2 mph 0.00 in   Overcast
7:53 AM 54.0 °F 48.0 °F 80% 29.59 in 10.0 mi South 13.8 mph - N/A   Overcast
8:53 AM 53.1 °F 48.9 °F 86% 29.60 in 10.0 mi SSE 9.2 mph - N/A   Overcast
9:53 AM 53.1 °F 48.9 °F 86% 29.63 in 10.0 mi SSE 9.2 mph - N/A   Overcast
10:53 AM 53.1 °F 48.9 °F 86% 29.65 in 10.0 mi SSE 10.4 mph - N/A   Overcast
11:53 AM 53.1 °F 48.9 °F 86% 29.66 in 10.0 mi South 6.9 mph - N/A   Overcast
12:53 PM 55.0 °F 48.9 °F 80% 29.68 in 10.0 mi South 6.9 mph - N/A   Overcast
1:53 PM 55.0 °F 50.0 °F 83% 29.68 in 10.0 mi Variable 4.6 mph - N/A   Overcast
2:53 PM 54.0 °F 50.0 °F 86% 29.69 in 10.0 mi SE 12.7 mph - N/A   Overcast
3:53 PM 54.0 °F 50.0 °F 86% 29.70 in 10.0 mi SE 8.1 mph - N/A   Overcast
4:53 PM 54.0 °F 50.0 °F 86% 29.70 in 10.0 mi SE 10.4 mph - N/A   Overcast
5:53 PM 54.0 °F 50.0 °F 86% 29.69 in 10.0 mi SSE 8.1 mph - N/A   Overcast
6:53 PM 53.1 °F 50.0 °F 89% 29.68 in 10.0 mi SE 8.1 mph - N/A   Overcast
7:53 PM 54.0 °F 50.0 °F 86% 29.68 in 10.0 mi SE 6.9 mph - 0.00 in   Overcast
8:53 PM 53.1 °F 50.0 °F 89% 29.67 in 10.0 mi ESE 6.9 mph - N/A   Overcast
9:53 PM 51.1 °F 48.9 °F 92% 29.66 in 10.0 mi ESE 10.4 mph - N/A   Overcast
10:53 PM 51.1 °F 50.0 °F 96% 29.64 in 10.0 mi East 8.1 mph - 0.01 in Rain Light Rain
11:06 PM 50.0 °F 50.0 °F 100% 29.63 in 9.0 mi East 10.4 mph - 0.00 in Rain Light Rain
11:46 PM 50.0 °F 48.2 °F 94% 29.61 in 8.0 mi East 11.5 mph - 0.03 in Rain Light Rain
11:53 PM 50.0 °F 48.9 °F 96% 29.61 in 8.0 mi East 12.7 mph - 0.04 in Rain Rain